Tracking 19796 objects as of 19-Jul-2019
HD Live streaming from Space Station
objects crossing your sky now

SL-16 DEB

Track SL-16 DEB now!
10-day predictions


NORAD ID: 39879
Int'l Code: 1993-016BD
Perigee: 736.1 km
Apogee: 918.3 km
Inclination: 71.0 °
Period: 101.3 minutes
Semi major axis: 7198 km
RCS: 0.0122 m2 (small)
Launch date: March 26, 1993
Source: Commonwealth of Independent States (former USSR) (CIS)
Launch site: TYURATAM MISSILE AND SPACE COMPLEX (TTMTR)

Note: This is SATELLITE DEBRIS
aabbcc
Your satellite tracking list
Your tracking list is empty




NASA's NSSDC Master Catalog

Two Line Element Set (TLE):
1 39879U 93016BD  19199.47784788 +.00000901 +00000-0 +39906-3 0  9997
2 39879 070.9841 216.8730 0126582 036.7845 035.0480 14.21570796264926
Source of the keplerian elements: AFSPC